www.pogodaiklimat.ru

Погода и климат >> Архив погоды >> Мексика >> Эрмосильо


ПОГОДА в Эрмосильо

  • Прогноз погоды в Эрмосильо
  • Монитор погоды в Эрмосильо

АРХИВ ПОГОДЫ в Эрмосильо

Время (UTC), дата Ветер
(напр.,м/с)
 
Видим.   Явления Облачность Т
(С)
Тd
(С)
f
(%)
Тe
(С)
Тes
(С)
Комфортность P
(гПа)
Po
(гПа)
Тmin
(С)
Tmax
(С)
R
(мм)
R24
(мм)
S
(см)
03 13.07 С 1 12 км слаб. морось 10/10 900 м
[St]
+33.6 +20.8 47 +41 +41 опасность
перегрева
1008.0 985.1 2
06 13.07 СВ 3 8000 м 9/0 2000 м
[As op]
+30.0 +20.3 56 +37 +37 очень
душно
1009.0 985.9 +29.5 +45.5 2
15 13.07 СВ 1 12 км 8/8 900 м
[Sc]
+29.2 +21.4 63 +37 +38 очень
душно
1012.0 988.2
15 14.07 С 1 12 км 10/10 900 м
[Frnb]
+28.0 +23.3 76 +38 +38 очень
душно
1013.5 989.6
18 14.07 штиль 0 12 км 9/5 900 м
[Sc diur, vesp Ac lent Ci sp]
+32.8 +21.8 52 +41 +49 опасность
перегрева
1013.4 989.6 +26.0 +32.8
15 15.07 СВ 1 12 км 3/3 900 м
[Sc diur, vesp]
+33.0 +20.4 48 +40 +45 очень
душно
1010.2 986.7
18 15.07 ЮЗ 1 12 км 1/1 900 м
[Sc diur, vesp]
+40.0 +20.7 33 +46 +67 опасность
перегрева
1009.1 985.9 +29.0 +40.0
21 15.07 ЮЗ 1 12 км 1/1 900 м
[Sc]
+42.8 +16.2 21 +44 +64 опасность
перегрева
1006.2 983.3
00 16.07 З 2 12 км 1/1 900 м
[Sc]
+43.4 +16.6 21 +45 +50 опасность
перегрева
1003.5 980.8 +29.0 +44.5
03 16.07 ЮЗ 4 12 км ясно +38.4 +15.8 26 +40 +40 очень
душно
1004.4 981.6
06 16.07 ЮЗ 3 8000 м 4/0
[Ac trans]
+33.8 +16.4 35 +36 +36 очень
душно
1006.7 983.8 +44.5
15 16.07 В 3 12 км 1/1 900 м
[Sc diur, vesp]
+32.4 +20.6 50 +39 +44 очень
душно
1011.0 987.6
00 17.07 З 1 12 км 1/1 900 м
[Sc]
+41.4 +19.3 28 +46 +51 опасность
перегрева
1006.0 983.2 +26.5 +43.5
03 17.07 З 3 12 км 5/0 2000 м
[Ac und Ci fib]
+36.8 +19.6 37 +42 +42 опасность
перегрева
1007.6 984.6
15 17.07 СВ 2 12 км 10/10 900 м
[Frnb]
+24.6 +22.7 89 +32 +32 очень
душно
1014.4 990.2
18 17.07 СВ 2 12 км 9/9 900 м
[St]
+27.8 +22.3 72 +36 +38 очень
душно
1014.3 990.2 +24.0 +27.8
21 17.07 СЗ 1 12 км 4/4 900 м
[St]
+35.2 +20.7 43 +42 +55 опасность
перегрева
1012.3 988.6
00 18.07 Ю 1 12 км 1/1 900 м
[Sc]
+36.2 +21.6 43 +44 +49 опасность
перегрева
1009.8 986.3 +24.0 +38.5
18 18.07 штиль 0 12 км 9/0 2000 м
[Ac lent Cc]
+35.8 +20.5 41 +42 +51 опасность
перегрева
1011.4 988.1 +21.5 +35.8
21 18.07 Ю 1 12 км 5/0 2000 м
[Ac lent]
+39.0 +19.0 31 +43 +56 опасность
перегрева
1008.9 985.8
00 19.07 З 1 12 км 1/0 2000 м
[Ac lent]
+40.8 +18.8 28 +45 +50 опасность
перегрева
1006.0 983.2 +21.5 +42.0
15 19.07 СВ 1 12 км 9/0 2000 м
[Ac und Ci ing]
+29.0 +22.7 69 +38 +42 очень
душно
1011.1 987.3
18 19.07 нст 1 12 км 8/5 900 м
[Sc diur, vesp Ac As]
+35.4 +20.6 42 +42 +49 опасность
перегрева
1010.9 987.3 +28.5 +35.4
21 19.07 ЮЗ 1 12 км 3/1 900 м
[Sc Ci fib]
+39.0 +18.2 30 +43 +62 опасность
перегрева
1007.7 984.5
00 20.07 СЗ 1 12 км 4/3 900 м
[Sc Ci fib]
+40.6 +17.8 27 +44 +48 опасность
перегрева
1005.7 982.7 +28.5 +41.5

 

Местоположение метеостанции Эрмосильо (Мексика): широта 29.09 долгота -111.05 высота над уровнем моря 191 м.

В архиве по умолчанию представлена погода в Эрмосильо за последнюю неделю. Архивные данные за месяц целиком и за предыдущие месяцы, начиная с января 2011 года, Вы можете получить, выбрав интересующий диапазон дат из раскрывающегося списка и нажав кнопку "Ввод!".


*Определитесь, кто Вы:
робот инопланетянин человек

Внимание! Время в таблицах - всемирное. Для получения местного времени необходимо прибавить поправку, которая равна -7 ч.

Смотрите также архив погоды в соседних городах и на ближайших метеорологических станциях:

Погода в Эрмосильо Магна (Мексика) (10 км)
Погода в Гуаймасе (Мексика) (131 км)
Погода в Эмпальме (Мексика) (131 км)
Погода в Накосари де Гарсия (Мексика) (194 км)
Погода в Альтаре (Мексика) (196 км)
Погода в Сьюдад-Обрегоне (Мексика) (224 км)
Погода в Санта-Розалии (Мексика) (233 км)
Погода в Темосачи (Мексика) (316 км)
Погода в Нуэво-Касас-Грандесе (Мексика) (336 км)
Погода в Лорето (Мексика) (342 км)

Пояснения к столбцам:

Ветер - указаны скорость ветра в м/с - средняя за 10 мин, порывы в срок и между сроками (в фигурных скобках) и направление, откуда дует ветер: С - северный, СВ - северо-восточный, В - восточный, ЮВ - юго-восточный, Ю - южный, ЮЗ - юго-западный, З - западный, СЗ - северо-западный.
Видимость - горизонтальная дальность видимости в метрах или километрах. При видимости от 1 до 10 км при отсутствии осадков обычно наблюдается дымка, при ухудшении видимости до 1 км и менее - туман. В сухую погоду видимость может ухудшаться дымом, пылью или мглою.
Явления - указаны атмосферные явления, наблюдавшиеся в срок или в последний час перед сроком; фигурными скобками обозначены явления, наблюдавшиеся между сроками (за 1-3 часа до срока); квадратными скобками обозначены град или гололедные отложения с указанием их диаметра в мм.
Облачность - указаны через наклонную черту общая и нижняя облачность в баллах и высота нижней границы облаков в метрах; квадратными скобками обозначены формы облаков: Ci - перистые, Cs - перисто-слоистые, Cc - перисто-кучевые, Ac - высококучевые, As - высокослоистые, Sc - слоисто-кучевые, Ns - слоисто-дождевые, Cu - кучевые, Cb - кучево-дождевые. Подробнее классификацию облаков см. в Атласе облаков (PDF).
T - Температура воздуха - температура, измеренная на высоте 2 м над землей.
Td - Температура точки росы - температура, при понижении до которой содержащийся в воздухе водяной пар достигнет насыщения.
f - Относительная влажность воздуха - влажноcть воздуха, измеренная на высоте 2 м над землей.
Te - Эффективная температура - температура, которую ощущает одетый по сезону человек в тени. Характеристика душности погоды. При расчете учитывается влияние влажности воздуха и скорости ветра на теплоощущения человека.
Tes - Эффективная температура на солнце - температура, которую ощущает человек, с поправкой на солнечный нагрев. Характеристика знойности погоды. Зависит от высоты солнца над горизонтом, облачности и скорости ветра. Ночью, в пасмурную погоду, а также при ветре 12 м/с и более поправка равна нулю.
P - Атмосферное давление - приведенное к уровню моря атмосферное давление.
Po - Атмосферное давление - измеренное на уровне метеостанции атмосферное давление.
Tmin - Минимальная температура - минимум температуры воздуха на высоте 2 м над землей.
Tmax - Максимальная температура - максимум температуры воздуха на высоте 2 м над землей.
R - Количество осадков - Количество выпавших осадков за период времени, мм. При наведении курсора мыши на число - период времени, за который выпало указанное количество осадков.
R24 - Количество осадков - Количество выпавших осадков за 24 часа, мм.
S - Снежный покров - Высота снежного покрова, см. При наведении курсора мыши на число - состояние снежного покрова и степень покрытия местности в баллах.